This is the latest recevied weather packets stored in our database for station/object KM4KMS. If no packets are shown the sender has not sent any weather packets the latest 10 day(s).
| Time | Temp. | Humidity | Pressure | Rain* | Wind** | Luminosity | Snow |
|---|---|---|---|---|---|---|---|
| 1777985543 | 15.56° C | 90% | 1009.7 hPa | 0 mm | - | 72 W/m² | - |
| 1777985239 | 15° C | 90% | 1009.8 hPa | 0 mm | - | 69 W/m² | - |
| 1777984936 | 15° C | 89% | 1009.7 hPa | 0 mm | - | 65 W/m² | - |
| 1777984632 | 15° C | 91% | 1009.8 hPa | 0 mm | - | 81 W/m² | - |
| 1777984329 | 15° C | 92% | 1009.8 hPa | 0 mm | - | 69 W/m² | - |
| 1777984025 | 15° C | 91% | 1009.8 hPa | 0 mm | - | 63 W/m² | - |
| 1777983723 | 15° C | 92% | 1009.6 hPa | 0 mm | - | 56 W/m² | - |
| 1777983419 | 15° C | 93% | 1009.5 hPa | 0 mm | - | 58 W/m² | - |
| 1777983115 | 14.44° C | 93% | 1009.5 hPa | 0 mm | - | 51 W/m² | - |
| 1777982812 | 14.44° C | 94% | 1009.9 hPa | 0 mm | - | 42 W/m² | - |
| 1777982507 | 14.44° C | 95% | 1009.6 hPa | 0 mm | - | 36 W/m² | - |
| 1777982201 | 14.44° C | 95% | 1009.5 hPa | 0 mm | - | 35 W/m² | - |
| 1777981900 | 14.44° C | 97% | 1009.5 hPa | 0 mm | - | 34 W/m² | - |
| 1777981597 | 14.44° C | 96% | 1009.5 hPa | 0 mm | - | 29 W/m² | - |
| 1777981293 | 14.44° C | 96% | 1009.3 hPa | 0 mm | - | 28 W/m² | - |
| 1777980989 | 14.44° C | 96% | 1009.6 hPa | 0 mm | - | 23 W/m² | - |
| 1777980686 | 13.89° C | 95% | 1009.4 hPa | 0 mm | - | 26 W/m² | - |
| 1777980382 | 13.89° C | 96% | 1009.2 hPa | 0 mm | - | 18 W/m² | - |
| 1777980080 | 14.44° C | 94% | 1009.6 hPa | 0 mm | - | 7 W/m² | - |
| 1777979774 | 14.44° C | 93% | 1009.7 hPa | 0 mm | - | 3 W/m² | - |
| 1777979470 | 14.44° C | 93% | 1009.6 hPa | 0 mm | - | 3 W/m² | - |
| 1777979167 | 14.44° C | 91% | 1009.9 hPa | 0 mm | - | 3 W/m² | - |
| 1777978864 | 15° C | 90% | 1009.8 hPa | 1.78 mm | - | 1 W/m² | - |
| 1777978561 | 15° C | 89% | 1010.1 hPa | 1.78 mm | - | 1 W/m² | - |
| 1777978256 | 15° C | 88% | 1010 hPa | 0 mm | - | 0 W/m² | - |
* Rain latest hour (hover to see other rain measurements)
** Current wind speed in m/s (hover to see current wind gust speed)